• In Hungary
  • List of Countries
  • For 7 days
  • Water Temperature
  • Satellite Maps
  • Weather Map
  • News
  • Weather Widgets
  • user-avatar
    Login

    Hourly Weather Bismarck

    Today, 20 June, Wednesday

    Time Temperature Precipitation Wind Pressure Humidity
    00:00 +18°C° 0 mm 1 mps 718 mmHg 86%
    01:00 +16°C° 0 mm 1 mps 718 mmHg 87%
    02:00 +16°C° 0 mm 1 mps 718 mmHg 88%
    03:00 +16°C° 0 mm 1 mps 718 mmHg 88%
    04:00 +18°C° 0 mm 1 mps 718 mmHg 88%
    05:00 +18°C° 0 mm 1 mps 718 mmHg 88%
    06:00 +18°C° 0 mm 2 mps 718 mmHg 82%
    07:00 +20°C° 0 mm 2 mps 718 mmHg 76%
    08:00 +22°C° 0 mm 3 mps 718 mmHg 70%
    09:00 +24°C° 0 mm 3 mps 718 mmHg 62%
    10:00 +26°C° 0 mm 3 mps 718 mmHg 54%
    11:00 +27°C° 0 mm 4 mps 718 mmHg 46%
    12:00 +27°C° 0 mm 3 mps 718 mmHg 47%
    13:00 +27°C° 0 mm 3 mps 718 mmHg 47%
    14:00 +27°C° 0 mm 3 mps 718 mmHg 47%
    15:00 +27°C° 0 mm 3 mps 718 mmHg 49%
    16:00 +26°C° 0 mm 2 mps 717 mmHg 51%
    17:00 +26°C° 0 mm 2 mps 717 mmHg 54%
    18:00 +24°C° 0 mm 2 mps 717 mmHg 58%
    19:00 +23°C° 0 mm 1 mps 717 mmHg 62%
    20:00 +21°C° 0 mm 1 mps 717 mmHg 66%
    21:00 +21°C° 0 mm 1 mps 717 mmHg 67%
    22:00 +20°C° 0 mm 1 mps 717 mmHg 68%
    23:00 +19°C° 0 mm 1 mps 717 mmHg 69%

    Tomorrow, 21 June, Thursday

    Time Temperature Precipitation Wind Pressure Humidity
    00:00 +19°C° 0 mm 1 mps 717 mmHg 70%
    01:00 +18°C° 0 mm 2 mps 717 mmHg 70%
    02:00 +18°C° 0 mm 2 mps 717 mmHg 71%
    03:00 +18°C° 0 mm 2 mps 717 mmHg 73%
    04:00 +18°C° 0 mm 2 mps 717 mmHg 75%
    05:00 +18°C° 0 mm 2 mps 717 mmHg 77%
    06:00 +21°C° 0 mm 1 mps 717 mmHg 71%
    07:00 +23°C° 0 mm 1 mps 717 mmHg 65%
    08:00 +25°C° 0 mm 1 mps 718 mmHg 59%
    09:00 +26°C° 0 mm 1 mps 718 mmHg 53%
    10:00 +28°C° 0 mm 1 mps 718 mmHg 47%
    11:00 +29°C° 0 mm 1 mps 718 mmHg 42%
    12:00 +29°C° 0 mm 1 mps 718 mmHg 42%
    13:00 +29°C° 0 mm 1 mps 717 mmHg 43%
    14:00 +29°C° 0 mm 2 mps 717 mmHg 44%
    15:00 +28°C° 0 mm 1 mps 717 mmHg 47%
    16:00 +28°C° 0 mm 1 mps 717 mmHg 50%
    17:00 +27°C° 0 mm 1 mps 716 mmHg 53%
    18:00 +26°C° 0 mm 1 mps 716 mmHg 55%
    19:00 +24°C° 0 mm 1 mps 716 mmHg 58%
    20:00 +23°C° 0 mm 1 mps 716 mmHg 61%
    21:00 +22°C° 0 mm 1 mps 716 mmHg 63%
    22:00 +21°C° 0 mm 2 mps 716 mmHg 66%
    23:00 +20°C° 0 mm 2 mps 716 mmHg 68%

    Day after tomorrow, 22 June, Friday

    Time Temperature Precipitation Wind Pressure Humidity
    00:00 +19°C° 0 mm 2 mps 715 mmHg 71%
    01:00 +19°C° 0 mm 2 mps 715 mmHg 74%
    02:00 +18°C° 0 mm 2 mps 715 mmHg 77%
    03:00 +18°C° 0 mm 3 mps 715 mmHg 78%
    04:00 +18°C° 0 mm 3 mps 715 mmHg 80%
    05:00 +18°C° 0 mm 3 mps 714 mmHg 81%
    06:00 +20°C° 0 mm 3 mps 714 mmHg 73%
    07:00 +22°C° 0 mm 4 mps 714 mmHg 66%
    08:00 +25°C° 0 mm 4 mps 714 mmHg 58%
    09:00 +26°C° 0 mm 5 mps 714 mmHg 52%
    10:00 +27°C° 0 mm 5 mps 714 mmHg 47%
    11:00 +29°C° 0 mm 5 mps 714 mmHg 41%
    12:00 +29°C° 0 mm 5 mps 714 mmHg 40%
    13:00 +29°C° 0 mm 5 mps 713 mmHg 39%
    14:00 +30°C° 0 mm 5 mps 713 mmHg 37%
    15:00 +29°C° 0 mm 5 mps 713 mmHg 40%
    16:00 +29°C° 0 mm 5 mps 712 mmHg 43%
    17:00 +29°C° 0 mm 4 mps 712 mmHg 46%
    18:00 +27°C° 0 mm 4 mps 712 mmHg 54%
    19:00 +25°C° 0 mm 4 mps 712 mmHg 61%
    20:00 +22°C° 0 mm 4 mps 711 mmHg 68%
    21:00 +21°C° 0.2 mm 4 mps 711 mmHg 74%
    22:00 +20°C° 0.2 mm 4 mps 711 mmHg 80%
    23:00 +19°C° 0.2 mm 3 mps 711 mmHg 86%

    23 June, Saturday

    Time Temperature Precipitation Wind Pressure Humidity
    00:00 +19°C° 0 mm 3 mps 711 mmHg 87%
    01:00 +18°C° 0 mm 3 mps 710 mmHg 88%
    02:00 +18°C° 0 mm 3 mps 710 mmHg 89%
    03:00 +18°C° 0 mm 3 mps 710 mmHg 89%
    04:00 +18°C° 0 mm 3 mps 710 mmHg 90%
    05:00 +17°C° 0 mm 4 mps 710 mmHg 90%
    06:00 +19°C° 0 mm 4 mps 710 mmHg 84%
    07:00 +21°C° 0 mm 4 mps 710 mmHg 78%
    08:00 +22°C° 0 mm 4 mps 710 mmHg 72%
    09:00 +23°C° 0 mm 5 mps 710 mmHg 69%
    10:00 +25°C° 0 mm 5 mps 710 mmHg 65%
    11:00 +26°C° 0 mm 5 mps 710 mmHg 62%
    12:00 +27°C° 0.3 mm 5 mps 710 mmHg 61%
    13:00 +27°C° 0.3 mm 6 mps 710 mmHg 60%
    14:00 +28°C° 0.3 mm 6 mps 709 mmHg 59%
    15:00 +27°C° 1.3 mm 5 mps 709 mmHg 64%
    16:00 +26°C° 1.3 mm 5 mps 709 mmHg 69%
    17:00 +25°C° 1.3 mm 4 mps 710 mmHg 74%
    18:00 +23°C° 0.6 mm 4 mps 710 mmHg 78%
    19:00 +21°C° 0.6 mm 4 mps 710 mmHg 82%
    20:00 +20°C° 0.6 mm 3 mps 710 mmHg 86%
    21:00 +20°C° 0.2 mm 3 mps 711 mmHg 88%
    22:00 +19°C° 0.2 mm 3 mps 711 mmHg 90%
    23:00 +19°C° 0.2 mm 3 mps 711 mmHg 92%

    24 June, Sunday

    Time Temperature Precipitation Wind Pressure Humidity
    00:00 +18°C° 0.1 mm 3 mps 711 mmHg 93%
    01:00 +18°C° 0.1 mm 3 mps 712 mmHg 94%
    02:00 +17°C° 0.1 mm 3 mps 712 mmHg 95%
    03:00 +17°C° 0 mm 3 mps 712 mmHg 94%
    04:00 +17°C° 0 mm 3 mps 713 mmHg 94%
    05:00 +18°C° 0 mm 3 mps 713 mmHg 93%
    06:00 +19°C° 0 mm 4 mps 714 mmHg 86%
    07:00 +21°C° 0 mm 4 mps 715 mmHg 79%
    08:00 +23°C° 0 mm 4 mps 715 mmHg 71%
    09:00 +26°C° 0.1 mm 5 mps 716 mmHg 64%
    10:00 +27°C° 0.1 mm 5 mps 716 mmHg 58%
    11:00 +28°C° 0.1 mm 5 mps 716 mmHg 51%
    12:00 +29°C° 0.1 mm 5 mps 716 mmHg 50%
    13:00 +29°C° 0.1 mm 5 mps 716 mmHg 48%
    14:00 +30°C° 0.1 mm 5 mps 716 mmHg 47%
    15:00 +29°C° 0.1 mm 5 mps 716 mmHg 50%
    16:00 +29°C° 0.1 mm 5 mps 716 mmHg 53%
    17:00 +28°C° 0.1 mm 4 mps 717 mmHg 56%
    18:00 +26°C° 0 mm 4 mps 717 mmHg 63%
    19:00 +25°C° 0 mm 3 mps 717 mmHg 70%
    20:00 +23°C° 0 mm 2 mps 717 mmHg 78%
    21:00 +21°C° 0.2 mm 2 mps 717 mmHg 81%
    22:00 +20°C° 0.2 mm 2 mps 718 mmHg 84%
    23:00 +20°C° 0.2 mm 2 mps 718 mmHg 87%

    25 June, Monday

    Time Temperature Precipitation Wind Pressure Humidity
    00:00 +19°C° 0 mm 2 mps 718 mmHg 89%
    01:00 +19°C° 0 mm 3 mps 718 mmHg 91%
    02:00 +18°C° 0 mm 3 mps 718 mmHg 93%
    03:00 +19°C° 0 mm 3 mps 718 mmHg 93%
    04:00 +19°C° 0 mm 3 mps 718 mmHg 92%
    05:00 +19°C° 0 mm 3 mps 718 mmHg 92%
    06:00 +21°C° 0 mm 4 mps 718 mmHg 84%
    07:00 +23°C° 0 mm 5 mps 718 mmHg 77%
    08:00 +26°C° 0 mm 6 mps 718 mmHg 70%
    09:00 +27°C° 0 mm 6 mps 718 mmHg 65%
    10:00 +28°C° 0 mm 6 mps 718 mmHg 60%
    11:00 +29°C° 0 mm 6 mps 718 mmHg 56%
    12:00 +30°C° 0.1 mm 6 mps 717 mmHg 54%
    13:00 +30°C° 0.1 mm 6 mps 717 mmHg 52%
    14:00 +30°C° 0.1 mm 6 mps 717 mmHg 51%
    15:00 +30°C° 0.1 mm 6 mps 717 mmHg 53%
    16:00 +30°C° 0.1 mm 6 mps 716 mmHg 54%
    17:00 +29°C° 0.1 mm 6 mps 716 mmHg 56%
    18:00 +27°C° 0 mm 6 mps 716 mmHg 62%
    19:00 +26°C° 0 mm 5 mps 716 mmHg 69%
    20:00 +23°C° 0 mm 5 mps 715 mmHg 75%
    21:00 +22°C° 0 mm 5 mps 715 mmHg 78%
    22:00 +22°C° 0 mm 5 mps 715 mmHg 81%
    23:00 +21°C° 0 mm 5 mps 715 mmHg 83%
    Show more